User: anonymous
Location: Valdosta
(30.8330°N, 83.2790°W)
Time: 06:01:04
(UTC-04:00)
Language:

Uribyol 2 - Orbit

View from above orbital plane
View from above orbital plane
View from above satellite
View from above satellite

Ground track
Ground track

The orbit data is extracted from the following two-line orbital elements,

1 22828U 93061F   14237.10181558  .00000097  00000-0  54552-4 0  6861
2 22828 098.6533 182.3256 0010855 063.5937 296.6358 14.30332008 59093
Epoch (UTC): 25 August 2014 02:26:36
Eccentricity: 0.0010855
inclination: 98.6533°
perigee height: 783 km
apogee height: 798 km
right ascension of ascending node: 182.3256°
argument of perigee: 63.5937°
revolutions per day: 14.30332008
mean anomaly at epoch: 296.6358°
orbit number at epoch: 5909

The dashed part of the orbit path shows where the satellite is in the earth's shadow,  

DLR